MST,Max TemperatureF,Mean TemperatureF,Min TemperatureF,Max Dew PointF,MeanDew PointF,Min DewpointF,Max Humidity, Mean Humidity, Min Humidity, Max Sea Level PressureIn, Mean Sea Level PressureIn, Min Sea Level PressureIn, Max VisibilityMiles, Mean VisibilityMiles, Min VisibilityMiles, Max Wind SpeedMPH, Mean Wind SpeedMPH, Max Gust SpeedMPH,PrecipitationIn, CloudCover, Events, WindDirDegrees
2011-12-1,38,23,7,22,16,5,92,68,44,30.71,30.33,29.76,10,10,10,48,16,58,0.00,0,,238
2011-12-2,37,30,22,18,14,11,68,53,38,30.29,30.04,29.69,10,10,10,46,14,53,0.00,5,,300
2011-12-3,35,25,14,27,18,10,92,70,47,30.27,30.14,30.05,10,7,0,30,14,36,0.00,6,Fog-Snow,299
2011-12-4,25,12,-1,21,13,-4,96,82,67,30.67,30.44,30.17,10,7,2,25,9,33,0.01,5,Snow,344
2011-12-5,33,16,-1,19,10,-5,91,73,54,30.49,30.23,30.00,10,10,10,33,16,41,0.00,0,,234
2011-12-6,42,30,18,25,20,16,91,71,50,30.22,30.03,29.90,10,10,10,40,23,51,0.00,0,,275
2011-12-7,26,16,6,23,14,3,96,88,80,30.50,30.25,30.09,10,6,0,21,8,25,T,7,Fog-Snow,349
2011-12-8,22,10,-3,12,5,-5,91,74,56,30.39,30.32,30.13,10,10,10,14,4,15,0.00,4,,294
2011-12-9,41,26,11,20,16,3,80,61,41,30.33,30.20,30.05,10,10,10,31,16,38,0.00,1,,250
2011-12-10,52,39,26,18,15,11,58,40,21,30.09,29.90,29.78,10,10,10,40,22,49,0.00,0,,250
2011-12-11,33,27,20,22,20,15,96,75,53,30.18,30.03,29.90,10,6,2,14,6,16,T,5,Snow,356
2011-12-12,23,15,6,21,13,4,100,89,77,30.27,30.09,29.92,10,4,0,13,6,15,T,6,Fog-Snow,92
2011-12-13,30,11,-9,17,2,-13,95,77,58,30.08,29.93,29.79,10,4,0,29,4,36,0.00,1,Fog,309
2011-12-14,31,20,8,20,15,7,100,79,58,30.22,30.05,29.70,10,9,2,30,9,37,0.00,5,,326
2011-12-15,36,22,8,25,18,5,92,78,64,30.32,30.15,29.96,10,10,10,21,7,24,0.00,5,,263
2011-12-16,40,33,26,28,24,18,70,65,59,30.29,30.21,30.10,10,10,10,30,22,37,0.00,0,,256
2011-12-17,49,44,38,29,28,25,64,52,39,30.19,30.03,29.82,10,10,10,55,23,67,0.00,0,,252
2011-12-18,49,37,24,30,27,23,92,67,42,30.33,30.02,29.75,10,7,2,33,13,41,T,6,Snow,341
2011-12-19,39,27,14,26,19,12,92,68,44,30.33,30.14,29.86,10,7,0,36,16,45,0.00,2,Fog,227
2011-12-20,44,37,29,24,22,19,69,58,46,29.86,29.79,29.74,10,10,10,51,29,61,0.00,0,,262
2011-12-21,30,22,14,22,18,8,81,72,63,30.41,30.19,29.87,10,8,1,36,14,46,T,5,Snow,325
2011-12-22,37,27,16,14,11,8,74,53,32,30.36,30.24,30.09,10,10,10,36,21,44,0.00,0,,257
2011-12-23,45,39,33,18,8,-4,47,33,18,30.27,30.17,30.11,10,10,10,47,30,60,0.00,0,,254
2011-12-24,47,42,36,27,23,18,59,51,42,30.35,30.28,30.18,10,10,10,45,24,56,0.00,0,,256
2011-12-25,52,43,33,29,23,16,64,46,28,30.26,29.99,29.77,10,10,10,40,21,51,0.00,0,,235
2011-12-26,38,32,26,17,14,8,63,49,35,30.16,30.05,29.81,10,10,10,32,20,41,0.00,1,,252
2011-12-27,40,36,32,26,22,12,70,53,35,29.95,29.87,29.76,10,10,10,44,21,52,0.00,1,,241
2011-12-28,50,42,33,33,30,22,70,58,46,29.73,29.62,29.49,10,10,10,41,25,51,0.00,0,,241
2011-12-29,47,40,33,37,25,16,75,58,41,29.82,29.57,29.34,10,9,2,44,24,56,0.05,2,Rain,250
2011-12-30,47,37,27,33,22,15,75,61,47,29.70,29.52,29.41,10,10,10,32,13,39,0.00,0,,220
2011-12-31,34,25,16,20,13,7,69,54,38,30.47,30.10,29.57,10,10,10,33,19,45,0.00,1,,264